Home > Weather > Tucumán > Past weeks

Flag for Argentina Weather for the Past 2 Weeks in Tucumán, Tucumán, Argentina

Now
70 °F

Overcast.


Feels Like: 70 °F
Forecast: N/A
Wind: 6 mph from East

Location: Tucuman Aerodrome

Current Time: May 3, 2016 at 6:14:30 PM

Latest Report: May 3, 2016 at 5:00 PM


Visibility: N/A

Pressure: 30.12 "Hg

Humidity: 60%

Dew Point: 55 °F

Location of TucumánLocation

Historic Weather in Tucumán — Graph

°F

Tucumán Temperature Yesterday

Maximum temperature yesterday: 70 °F (at 3:00 PM)
Minimum temperature yesterday: 52 °F (at 2:00 AM)
Average temperature yesterday: 60 °F

High & Low Weather Summary for the Past Weeks

 TemperatureHumidityPressure
High82 °F (Apr 24, 4:00 PM)100% (Apr 18, 10:00 PM)30.45 "Hg (Apr 18, 10:00 PM)
Low37 °F (Apr 22, 12:00 PM)43% (Apr 28, 3:00 PM)29.59 "Hg (Apr 23, 5:00 PM)
Average59 °F79%30.06 "Hg
* Reported Apr 18 5:00 PM — May 3 5:00 PM, Tucumán, Weather by CustomWeather, © 2016

Note: Actual official high and low records may vary slightly from our data, if they occured in-between our weather recording intervals... More about our weather records

Advertising

Tucumán Weather History for the Previous 24 Hours

Scroll right to see more
 ConditionsComfort  
Time TempWeatherWind HumidityBarometerVisibility
5:00 PM
Tue, May 3
70 °FOvercast.6 mph60%30.12 "HgN/A
4:00 PM70 °FPartly sunny.6 mph53%30.15 "HgN/A
3:00 PM70 °FPartly sunny.5 mph57%30.21 "HgN/A
2:00 PM68 °FScattered clouds.5 mph60%30.24 "HgN/A
1:00 PM66 °FPassing clouds.5 mph64%30.27 "HgN/A
12:00 PM64 °FSunny.5 mph68%30.30 "Hg10 mi
11:00 AM61 °FSunny.5 mph77%30.30 "Hg10 mi
10:00 AM59 °FOvercast.2 mph82%30.33 "HgN/A
9:00 AM57 °FOvercast.No wind88%30.30 "HgN/A
8:00 AM57 °FOvercast.5 mph82%30.30 "HgN/A
7:00 AM57 °FOvercast.5 mph94%30.24 "HgN/A
6:00 AM59 °FOvercast.No wind88%30.24 "Hg6 mi
5:00 AM59 °FOvercast.3 mph88%30.24 "Hg6 mi
4:00 AM61 °FOvercast.5 mph83%30.24 "Hg6 mi
3:00 AM59 °FClear.No wind88%30.27 "Hg6 mi
2:00 AM61 °FOvercast.2 mph83%30.27 "Hg5 mi
1:00 AM61 °FOvercast.3 mph83%30.27 "Hg5 mi
12:00 AM61 °FOvercast.2 mph77%30.27 "HgN/A
11:00 PM
Mon, May 2
61 °FPassing clouds.No wind83%30.27 "HgN/A
10:00 PM63 °FPassing clouds.No wind73%30.24 "HgN/A
9:00 PM63 °FPassing clouds.No wind77%30.24 "HgN/A
8:00 PM64 °FPassing clouds.No wind68%30.18 "HgN/A
7:00 PM64 °FOvercast.5 mph73%30.18 "HgN/A
6:00 PM66 °FPassing clouds.7 mph60%30.12 "HgN/A
Weather by CustomWeather, © 2016

See weather overviewHow to use our weather pages